Dewpoint
-7 -7 -7 -6 -5 -3 -2 -2 -3 -3 -4 -5 2 4 3 3 4 1 1 2 1 1 2 2 2 2 2 2 2 3 4 3 1 -1 -1 -1 -2 -2 -2 -3 -3 -4 -4
-7 -6 -5 -3 -1 -1 -2 -2 -1 -0 -2 -3 -4 -0 3 3 4 1 2 0 1 1 1 1 1 1 1 1 1 2 2 2 2 -0 -2 -2 -2 -2 -2 -4 -4 -5 -5
-5 -4 -2 -0 -1 -1 -2 -1 1 1 -1 0 -1 -1 -1 2 3 2 1 1 2 1 1 1 -0 -0 -0 0 1 1 1 0 1 1 -2 -2 -2 -3 -3 -4 -5 -6 -7
-2 -2 -1 -1 -3 -3 -1 -0 -0 -1 -1 -2 1 0 -0 1 1 2 2 3 2 2 1 0 -1 -1 -1 -0 1 1 -0 -0 -1 -1 -2 -2 -2 -3 -3 -5 -7 -9 -11
-11 -12 -11 -11 -9 -10 -10 -11 -8 -0 -0 -0 0 -0 -0 1 -0 1 0 2 2 2 1 -0 -1 -1 -1 -1 -1 -0 -1 -0 -1 -1 -2 -3 -3 -4 -4 -5 -7 -10 -10
-10 -10 -9 -9 -9 -9 -9 -8 -8 -3 0 -0 -1 -1 -1 0 1 1 1 0 2 2 1 -1 -1 -1 -2 -1 -1 -0 -0 -0 -1 -1 -2 -2 -2 -4 -3 -4 -4 -7 -10
-8 -7 -7 -7 -7 -6 -6 -6 -6 -3 2 1 0 -2 -0 0 0 0 2 2 2 2 0 -1 -1 -2 -2 -1 -1 -1 -1 -1 -0 -0 -0 -1 -2 -3 -3 -3 -4 -7 -14
-6 -5 -5 -5 -7 -7 -5 -4 -3 1 1 0 1 2 2 3 2 2 2 2 2 1 -0 -0 -2 -1 -2 -2 -1 -1 -1 -1 -1 -1 -0 0 -1 -2 -3 -4 -5 -7 -12
-5 -4 -5 -7 -6 -6 -5 -3 -1 1 1 1 -0 -1 1 1 2 3 2 2 2 1 -0 -1 -5 -2 -2 -2 -1 -1 -1 -1 -1 -1 -1 -1 -1 -1 -2 -3 -4 -7 -9
-7 -5 -8 -6 -5 -3 -1 0 -1 1 2 1 -0 -0 -1 -0 -0 0 0 1 1 1 -0 -1 -6 -3 -2 -2 -2 -1 -1 -1 -1 -1 -1 -2 -2 -2 -1 -2 -4 -6 -8
-7 -8 -8 -3 -1 -0 -0 0 0 1 1 1 0 -0 1 1 1 1 1 1 1 1 -0 -1 -3 -4 -3 -3 -2 -2 -2 -1 -1 -1 -1 -2 -2 -2 -2 -2 -4 -5 -6
-7 -7 -3 -0 -0 -0 -1 -0 -0 0 1 1 0 -0 -0 0 1 1 1 0 1 0 -0 -1 -2 -3 -3 -3 -3 -3 -2 -2 -1 -2 -1 -2 -2 -2 -3 -4 -4 -4 -5
-7 -3 -0 0 0 0 -0 -0 0 0 -0 -0 -0 -0 0 -1 -1 -0 -0 -1 -1 -1 -1 -1 -2 -3 -3 -3 -3 -3 -3 -3 -2 -2 -2 -2 -2 -4 -5 -6 -5 -5 -5
-4 -2 -0 -0 -0 0 -1 -1 -0 -1 -2 -1 -1 -1 -1 -1 -2 -2 -2 -1 -2 -2 -2 -2 -3 -3 -3 -3 -3 -4 -4 -3 -3 -2 -2 -2 -2 -3 -4 -6 -6 -6 -5
-2 -0 -1 -1 -1 -0 -1 -1 -1 -2 -2 -2 -2 -2 -2 -2 -2 -2 -2 -2 -3 -3 -3 -3 -4 -3 -3 -3 -4 -4 -5 -5 -4 -2 -3 -2 -2 -3 -3 -5 -6 -6 -6
-2 -1 -1 -0 -0 -0 -1 -1 -1 -2 -2 -2 -2 -2 -2 -2 -2 -3 -3 -4 -4 -4 -4 -4 -4 -4 -4 -4 -4 -4 -6 -7 -5 -5 -4 -4 -3 -3 -3 -3 -5 -6 -6
-3 -2 -1 -1 -1 -0 -0 -2 -2 -2 -2 -2 -2 -2 -3 -2 -2 -3 -3 -4 -4 -4 -4 -4 -4 -4 -4 -4 -4 -5 -7 -11 -7 -6 -6 -5 -5 -4 -4 -3 -4 -5 -6
-3 -3 -1 -1 -0 -0 -0 -1 -2 -3 -2 -2 -3 -2 -3 -2 -3 -3 -3 -4 -4 -4 -4 -4 -4 -4 -4 -4 -5 -7 -11 -12 -12 -12 -10 -6 -6 -6 -6 -5 -5 -6 -6
-3 -3 -1 -1 -1 -1 -1 -1 -2 -3 -4 -3 -3 -3 -3 -3 -3 -4 -3 -4 -4 -4 -5 -4 -4 -4 -5 -5 -5 -7 -6 -6 -7 -6 -8 -11 -12 -11 -9 -7 -7 -6 -5
-3 -2 -2 -2 -2 -2 -2 -2 -2 -2 -3 -4 -5 -4 -3 -3 -3 -4 -4 -4 -4 -4 -4 -4 -4 -4 -5 -7 -8 -10 -11 -12 -13 -15 -16 -17 -15 -17 -16 -13 -10 -8 -8
-3 -3 -2 -2 -3 -2 -2 -3 -3 -3 -3 -4 -4 -5 -5 -3 -3 -3 -4 -4 -4 -4 -4 -4 -4 -4 -5 -5 -7 -7 -6 -6 -6 -7 -9 -14 -14 -15 -20 -18 -16 -15 -15
-4 -4 -4 -3 -3 -3 -3 -3 -3 -3 -4 -4 -5 -5 -5 -4 -4 -4 -4 -4 -4 -4 -4 -4 -4 -5 -5 -5 -5 -5 -6 -6 -6 -6 -7 -9 -10 -13 -17 -17 -15 -14 -13
-5 -4 -4 -4 -4 -4 -4 -4 -4 -5 -5 -6 -6 -5 -5 -5 -5 -5 -5 -5 -5 -4 -4 -5 -5 -5 -5 -5 -5 -6 -6 -6 -6 -6 -7 -8 -12 -11 -11 -15 -18 -18 -16
-6 -5 -5 -4 -4 -5 -5 -5 -6 -6 -6 -6 -6 -6 -6 -6 -5 -5 -5 -5 -5 -5 -5 -5 -5 -5 -6 -6 -6 -6 -6 -6 -7 -7 -7 -7 -7 -7 -8 -11 -14 -17 -18
-6 -6 -6 -6 -6 -5 -5 -7 -7 -7 -7 -7 -7 -7 -6 -6 -6 -6 -6 -6 -6 -6 -6 -6 -6 -6 -6 -6 -6 -6 -7 -7 -7 -7 -7 -7 -7 -8 -8 -9 -12 -14 -13
-7 -6 -6 -6 -6 -6 -6 -6 -6 -7 -7 -7 -7 -7 -7 -7 -6 -6 -6 -6 -6 -7 -7 -7 -7 -7 -7 -7 -7 -7 -7 -7 -7 -7 -7 -7 -8 -9 -10 -11 -11 -10 -10
Wind_Speed
17 18 18 18 21 22 23 23 25 22 21 22 26 28 27 26 26 23 19 16 14 19 23 26 26 25 23 26 21 38 41 44 35 37 47 42 41 34 27 22 21 22 23
20 21 22 22 21 21 23 26 24 24 24 23 21 25 27 27 26 22 19 18 18 21 20 24 27 26 27 29 29 33 43 47 45 43 41 44 40 29 28 26 21 22 23
19 17 19 20 21 25 28 29 28 28 27 25 23 21 21 20 21 21 20 22 20 20 18 22 23 24 24 24 25 28 36 37 41 43 45 40 38 33 30 25 21 23 21
12 15 18 22 26 28 29 30 30 30 30 29 27 26 21 16 16 19 23 23 24 20 19 17 19 20 20 14 24 29 33 35 37 35 40 42 40 35 30 29 27 22 22
12 15 16 17 20 24 27 29 30 27 26 26 27 29 26 21 17 18 17 21 18 20 19 14 13 13 20 7 17 28 31 30 29 29 42 44 43 39 35 31 26 24 23
12 13 17 18 22 26 29 28 28 30 27 24 24 28 29 23 18 22 19 18 17 19 18 10 9 10 13 16 9 30 30 30 28 29 40 44 42 39 34 30 28 30 28
13 14 17 21 26 29 30 31 30 29 27 28 29 25 24 22 19 19 16 16 16 18 17 9 7 8 11 13 18 20 18 18 20 24 31 38 37 34 30 32 31 29 29
17 17 20 25 30 32 33 31 30 26 25 23 20 19 19 19 19 18 16 17 15 16 17 10 7 7 8 13 24 16 15 11 13 22 23 24 30 30 26 27 30 29 24
18 20 24 29 32 35 38 35 25 24 24 19 17 18 17 17 15 18 17 18 18 15 17 10 11 8 8 11 20 20 16 16 13 13 23 22 28 31 29 29 30 29 29
18 21 28 29 31 33 23 22 20 21 16 15 16 14 13 15 16 20 20 19 20 17 18 15 14 13 12 11 16 21 24 24 21 21 20 22 25 28 24 25 23 30 30
19 24 27 24 24 22 17 14 16 16 17 18 17 16 16 16 18 18 18 18 16 19 20 18 20 18 17 15 15 13 12 15 21 23 22 20 18 23 25 28 27 22 25
22 24 18 18 19 19 17 15 16 14 15 16 14 13 17 15 16 16 15 16 15 17 20 18 22 24 23 21 15 15 15 14 19 14 24 21 22 23 24 22 24 21 19
20 16 14 16 20 19 19 14 14 15 14 15 13 12 9 7 7 9 12 13 13 13 13 16 21 25 24 20 15 14 20 17 21 22 18 21 25 24 23 22 22 21 19
18 15 15 19 18 13 14 14 13 16 14 14 10 10 9 7 5 5 7 13 15 14 10 12 19 23 23 18 18 19 19 20 19 19 19 26 26 27 23 25 26 25 23
19 15 16 18 16 15 12 11 12 13 12 10 10 9 8 7 7 6 6 10 12 13 13 14 22 26 23 23 24 21 21 20 21 20 17 22 26 28 26 26 27 26 26
13 13 16 20 17 16 12 10 10 9 9 8 7 7 7 7 7 4 5 8 10 11 13 15 18 22 25 24 23 21 20 22 23 21 19 18 20 25 25 26 27 28 28
15 15 15 15 8 12 9 11 9 9 9 8 9 9 7 6 6 4 4 8 11 13 12 15 17 21 21 20 19 18 18 20 22 23 21 20 21 22 24 26 26 28 28
16 14 14 11 11 10 12 12 10 10 8 6 7 7 9 7 4 4 5 9 14 13 12 12 15 17 19 18 17 15 16 16 19 20 21 23 23 22 23 25 27 28 28
13 13 13 14 13 15 17 13 10 10 7 7 8 8 8 8 5 4 6 8 11 11 10 10 10 11 14 16 16 16 16 16 16 17 19 20 21 22 23 23 24 24 25
8 9 10 9 10 10 12 12 10 10 8 8 10 9 8 7 8 7 9 10 11 12 11 11 11 10 12 13 14 15 16 16 17 16 17 19 20 20 22 25 27 28 29
8 8 8 9 11 9 8 8 10 10 10 11 9 11 11 10 10 10 8 11 10 10 10 12 13 12 12 14 15 16 16 17 20 22 22 20 18 19 21 22 22 23 22
10 10 10 12 9 9 9 8 8 9 9 11 13 13 12 13 12 12 11 11 11 10 10 9 11 14 16 17 17 16 16 15 16 18 19 18 19 20 20 20 22 22 22
10 10 10 9 8 8 7 7 8 9 11 13 13 11 11 9 10 12 13 12 11 11 10 11 11 12 15 19 19 18 17 16 15 17 20 22 22 21 21 21 22 23 23
7 6 9 11 10 10 9 8 10 9 7 7 6 7 9 10 10 10 10 12 12 12 11 12 12 12 13 15 17 18 18 17 16 15 17 19 20 21 20 19 19 20 22
9 10 12 13 13 11 10 8 7 6 5 5 6 7 7 7 8 9 9 9 10 11 12 12 12 11 11 12 13 14 15 16 15 14 15 17 18 19 19 18 18 19 20
11 10 10 11 10 9 9 7 7 6 5 4 3 3 4 5 5 6 6 6 7 8 9 11 11 11 11 11 12 13 14 15 15 14 15 17 17 17 17 18 18 19 19
Wind_Direction
249 253 261 270 272 275 279 287 294 287 292 290 276 276 278 275 264 263 263 260 273 279 273 269 267 266 260 247 260 251 243 222 208 201 206 199 192 188 180 180 189 194 198
248 256 258 263 268 276 288 292 290 288 291 293 287 280 279 278 258 260 255 265 281 301 282 270 278 259 256 259 258 238 233 223 223 201 196 188 187 187 180 180 184 189 194
249 253 257 261 269 278 285 280 279 281 280 277 277 277 283 274 256 261 265 270 275 290 296 283 274 252 251 250 251 235 213 209 208 208 183 180 183 182 176 178 182 184 188
255 267 272 277 282 286 287 289 288 288 281 274 274 276 278 268 276 276 279 282 275 273 289 288 275 261 245 236 220 216 202 200 194 190 182 176 181 177 181 176 174 182 185
283 292 291 292 299 300 301 299 288 285 281 279 272 270 271 260 265 262 276 272 280 270 272 290 281 255 228 227 216 204 194 196 190 183 176 174 175 177 181 178 180 177 184
300 299 300 300 302 305 306 303 299 282 282 281 279 276 269 260 257 268 265 268 280 275 261 274 287 248 224 206 172 217 220 217 189 183 181 179 178 183 183 185 183 184 176
283 281 292 298 303 309 306 305 305 295 288 284 280 282 270 257 256 260 265 271 275 268 254 255 268 251 217 201 199 204 222 224 209 193 184 183 185 185 183 190 192 196 190
276 288 297 303 304 308 307 307 305 286 287 288 286 284 277 264 259 258 260 266 272 263 247 247 219 248 225 194 188 177 203 180 185 201 188 187 189 187 195 195 191 192 189
283 293 300 302 305 308 307 305 299 284 278 285 298 287 281 277 265 258 257 260 264 256 239 239 200 205 195 188 193 198 198 193 160 170 194 197 202 200 197 194 192 189 187
297 293 301 303 309 313 314 310 300 287 277 288 289 285 284 280 270 258 256 255 258 241 235 221 191 185 178 175 195 201 199 200 190 198 209 214 222 215 211 211 199 193 195
291 298 303 306 314 315 310 303 296 276 277 281 286 285 280 269 262 258 251 251 253 235 228 221 193 187 183 184 171 186 190 177 197 201 204 215 205 202 196 205 208 213 204
299 304 300 309 319 327 319 304 295 290 286 290 290 292 291 275 254 250 257 246 234 228 225 222 201 193 188 183 187 191 198 190 194 198 205 195 181 182 188 197 205 209 215
302 302 290 305 311 306 296 294 294 294 299 298 297 296 289 293 251 249 235 220 214 219 221 224 211 199 191 197 210 215 204 196 188 194 204 194 182 182 186 182 188 198 205
295 296 300 313 310 296 290 290 296 302 303 301 300 297 297 286 275 262 238 211 213 214 212 210 203 200 199 213 205 183 181 187 189 198 201 190 181 185 190 185 181 185 194
286 287 295 306 284 293 289 291 297 301 301 298 292 286 283 287 283 258 219 216 212 209 209 200 203 209 216 210 191 190 190 185 185 191 199 200 191 194 196 197 192 188 190
308 308 308 303 269 275 275 277 282 299 323 309 302 296 280 280 281 276 218 199 203 205 196 197 199 204 204 199 194 190 197 198 194 192 196 196 203 205 203 200 207 205 208
294 300 304 322 254 239 263 266 271 282 301 320 342 340 321 284 271 260 205 196 188 191 201 201 199 198 201 202 204 197 199 196 198 201 200 197 199 201 204 208 212 218 217
283 280 302 300 292 271 269 273 287 290 283 293 309 338 336 332 275 234 198 192 183 192 204 212 212 214 215 214 205 193 189 189 192 198 205 210 210 211 211 213 218 221 218
290 278 283 306 286 254 255 250 260 279 290 300 302 293 300 315 309 228 208 217 205 200 205 213 217 209 201 197 192 201 208 209 208 209 209 212 212 213 214 215 215 223 223
292 291 281 294 321 267 263 243 256 273 271 291 309 310 287 282 295 263 227 226 218 218 224 219 211 204 196 193 197 198 200 202 204 206 208 211 213 215 219 221 220 221 221
278 268 282 280 281 274 256 253 252 259 278 292 284 292 296 269 265 274 261 238 229 224 227 228 228 223 214 209 207 212 213 215 215 212 208 209 211 213 213 215 216 217 219
258 260 268 267 271 258 261 260 255 266 277 285 285 284 281 265 252 253 259 250 244 241 238 239 232 231 229 224 223 225 225 223 223 221 214 216 220 220 221 219 216 216 215
272 250 256 263 253 251 250 259 271 284 289 284 279 271 274 281 261 248 249 251 247 246 244 240 236 227 222 224 226 231 233 230 231 228 220 214 216 219 220 223 221 219 220
287 270 255 254 253 254 259 267 277 274 269 271 273 277 269 257 254 256 250 243 239 235 233 233 235 229 222 220 220 223 225 225 223 219 218 219 221 216 214 220 223 223 224
267 263 259 258 250 247 238 254 261 259 251 253 270 272 260 243 237 236 233 232 229 225 222 221 224 218 215 215 216 218 215 210 207 206 208 209 211 214 215 217 220 221 221
263 260 254 250 245 231 224 228 242 244 239 238 229 214 216 223 210 210 214 217 218 215 212 207 204 202 201 202 205 204 201 198 199 203 206 206 207 211 216 220 221 222 224
Height
1465 1465 1465 1466 1466 1465 1464 1461 1459 1456 1454 1451 1450 1449 1448 1448 1447 1447 1447 1446 1446 1445 1445 1444 1443 1443 1443 1443 1444 1443 1446 1448 1453 1461 1464 1472 1477 1485 1493 1501 1505 1509 1515
1458 1460 1459 1459 1460 1459 1458 1456 1454 1451 1447 1444 1443 1442 1441 1440 1440 1441 1441 1441 1440 1438 1437 1436 1434 1435 1435 1435 1435 1437 1439 1438 1442 1450 1456 1465 1475 1483 1489 1497 1501 1506 1511
1454 1452 1454 1455 1454 1452 1450 1447 1446 1445 1443 1439 1436 1434 1433 1432 1433 1435 1435 1435 1434 1433 1430 1428 1427 1428 1428 1428 1428 1430 1433 1434 1437 1440 1450 1461 1472 1480 1488 1493 1499 1504 1509
1450 1452 1452 1451 1447 1446 1444 1442 1439 1436 1433 1431 1430 1429 1427 1427 1428 1428 1428 1428 1428 1426 1425 1424 1422 1422 1423 1423 1423 1425 1426 1431 1435 1440 1448 1457 1468 1478 1484 1488 1496 1501 1504
1447 1447 1445 1443 1443 1440 1437 1435 1432 1429 1426 1424 1422 1421 1420 1421 1421 1421 1422 1423 1422 1420 1420 1420 1418 1417 1418 1419 1422 1423 1426 1430 1436 1441 1447 1455 1464 1472 1478 1485 1492 1497 1502
1440 1441 1440 1437 1436 1434 1431 1427 1424 1421 1419 1417 1414 1413 1412 1414 1415 1416 1416 1416 1416 1415 1415 1415 1414 1414 1414 1417 1420 1421 1424 1428 1433 1439 1445 1452 1461 1468 1475 1482 1487 1492 1498
1432 1433 1432 1431 1428 1425 1422 1419 1416 1415 1412 1409 1408 1406 1404 1406 1408 1409 1410 1410 1410 1410 1410 1410 1412 1412 1413 1416 1420 1423 1425 1428 1433 1437 1443 1451 1458 1464 1471 1477 1484 1490 1494
1427 1429 1428 1425 1421 1417 1413 1410 1408 1406 1406 1403 1401 1399 1398 1400 1402 1403 1404 1404 1405 1406 1407 1407 1409 1410 1411 1414 1419 1423 1426 1430 1433 1438 1445 1452 1457 1462 1467 1474 1481 1488 1495
1425 1423 1421 1418 1413 1409 1404 1402 1400 1398 1399 1398 1396 1395 1394 1396 1396 1397 1398 1399 1400 1402 1403 1405 1407 1409 1410 1413 1418 1421 1425 1430 1435 1439 1445 1450 1456 1461 1467 1473 1479 1485 1490
1423 1415 1414 1411 1407 1403 1397 1394 1393 1394 1392 1392 1392 1391 1390 1390 1392 1392 1393 1394 1395 1397 1400 1401 1405 1408 1410 1412 1416 1419 1423 1428 1433 1438 1442 1449 1454 1460 1466 1472 1476 1480 1486
1413 1409 1405 1404 1401 1398 1394 1391 1390 1390 1390 1389 1387 1386 1385 1385 1386 1386 1387 1388 1389 1391 1395 1398 1401 1406 1409 1412 1415 1419 1424 1427 1431 1436 1441 1445 1450 1456 1461 1468 1475 1479 1483
1406 1402 1399 1397 1397 1394 1391 1390 1389 1387 1387 1385 1384 1382 1381 1380 1379 1380 1381 1382 1385 1387 1391 1394 1398 1402 1406 1411 1415 1419 1423 1426 1430 1434 1438 1443 1447 1453 1459 1465 1471 1478 1483
1398 1394 1391 1390 1391 1390 1389 1388 1386 1385 1383 1382 1380 1378 1377 1376 1375 1375 1376 1378 1381 1384 1387 1391 1394 1399 1404 1409 1412 1416 1420 1424 1427 1432 1437 1441 1446 1452 1458 1464 1469 1475 1480
1392 1389 1387 1384 1385 1385 1385 1384 1383 1383 1381 1379 1377 1376 1375 1375 1374 1373 1374 1375 1378 1381 1384 1388 1392 1397 1402 1406 1410 1414 1418 1422 1426 1431 1434 1440 1445 1450 1455 1461 1465 1471 1477
1384 1383 1382 1380 1380 1381 1381 1381 1382 1381 1378 1377 1375 1373 1373 1372 1372 1371 1372 1374 1377 1379 1382 1386 1389 1394 1398 1402 1407 1411 1416 1420 1424 1429 1434 1437 1442 1447 1452 1458 1463 1468 1473
1381 1378 1377 1374 1374 1376 1377 1379 1380 1379 1376 1375 1373 1372 1371 1370 1370 1370 1370 1372 1375 1378 1380 1382 1386 1390 1394 1399 1404 1408 1414 1418 1423 1427 1431 1435 1439 1444 1449 1454 1459 1464 1469
1377 1375 1373 1371 1368 1372 1375 1377 1377 1376 1375 1374 1372 1370 1369 1368 1368 1369 1370 1371 1373 1376 1378 1381 1384 1388 1393 1397 1402 1406 1412 1416 1419 1424 1428 1432 1437 1441 1445 1450 1454 1459 1464
1373 1371 1369 1368 1368 1370 1372 1373 1374 1373 1372 1372 1371 1370 1368 1368 1368 1368 1369 1371 1372 1375 1379 1382 1384 1388 1392 1396 1400 1405 1409 1413 1417 1421 1425 1429 1434 1438 1442 1446 1450 1454 1459
1367 1365 1365 1365 1363 1365 1366 1369 1370 1371 1370 1370 1370 1369 1368 1367 1367 1368 1369 1371 1373 1375 1378 1381 1385 1387 1390 1394 1398 1402 1407 1410 1414 1418 1421 1426 1429 1433 1438 1442 1447 1451 1455
1363 1362 1362 1362 1363 1363 1364 1365 1367 1368 1368 1367 1368 1367 1366 1366 1366 1367 1369 1370 1372 1374 1378 1381 1384 1387 1390 1393 1396 1399 1403 1406 1409 1413 1417 1421 1426 1430 1434 1438 1442 1446 1450
1360 1360 1360 1360 1361 1362 1362 1363 1364 1365 1365 1364 1364 1365 1364 1364 1365 1366 1367 1368 1371 1373 1376 1379 1383 1386 1388 1392 1395 1397 1400 1403 1406 1409 1413 1418 1422 1426 1429 1434 1438 1442 1446
1357 1358 1358 1358 1359 1359 1360 1360 1361 1361 1361 1362 1362 1362 1362 1362 1363 1364 1366 1367 1369 1372 1374 1377 1379 1383 1386 1389 1392 1395 1397 1400 1402 1405 1409 1413 1418 1422 1426 1430 1433 1437 1440
1353 1354 1355 1356 1357 1357 1357 1358 1358 1358 1358 1359 1359 1359 1359 1360 1360 1362 1363 1365 1367 1370 1372 1374 1376 1378 1381 1385 1388 1391 1394 1397 1399 1402 1405 1409 1413 1416 1420 1424 1428 1432 1435
1351 1352 1353 1354 1354 1354 1355 1355 1355 1355 1355 1356 1356 1356 1356 1357 1358 1360 1361 1362 1364 1367 1369 1370 1373 1375 1378 1381 1384 1386 1390 1393 1396 1398 1402 1405 1409 1412 1416 1420 1423 1426 1430
1348 1349 1350 1351 1351 1351 1352 1352 1353 1353 1353 1353 1354 1354 1355 1356 1356 1357 1359 1360 1362 1364 1366 1368 1370 1373 1375 1378 1381 1383 1386 1390 1393 1396 1399 1402 1405 1409 1412 1416 1419 1422 1425
1345 1346 1346 1347 1347 1348 1348 1349 1350 1351 1351 1351 1351 1352 1353 1354 1355 1357 1358 1359 1360 1362 1364 1366 1369 1371 1374 1376 1379 1381 1384 1387 1390 1393 1396 1399 1402 1405 1408 1411 1414 1417 1420